DW1521 Weather Reports


Display with metric or nautical units.
time (UTC)temp
F
wind
direction
speed
MPH
gust
MPH
rain 1hr
in
rain 24hr
in
rain mn
in
humidity
%
barometer
mb
20260507082836 69 148 2.0 5.0 0.00 0.00 0.00 54 1017.3
20260507082335 69 151 3.0 5.0 0.00 0.00 0.00 55 1017.2
20260507081336 67 178 2.0 5.0 0.00 0.00 0.00 57 1017.2
20260507075836 66 162 1.0 2.0 0.00 0.00 0.00 57 1017.2
20260507075336 66 71 2.0 3.0 0.00 0.00 0.00 57 1017.1
20260507074336 65 45 2.0 5.0 0.00 0.00 0.00 58 1017.2
20260507073835 65 101 3.0 6.0 0.00 0.00 0.00 60 1017.3
20260507072836 63 13 1.0 3.0 0.00 0.00 0.00 61 1017.3
20260507072336 63 30 2.0 5.0 0.00 0.00 0.00 62 1017.4
20260507071336 62 281 1.0 2.0 0.00 0.00 0.00 63 1017.5
20260507070836 61 286 2.0 5.0 0.00 0.00 0.00 63 1017.4
20260507070336 61 281 3.0 5.0 0.00 0.00 0.00 63 1017.4
20260507065336 61 250 1.0 2.0 0.00 0.00 0.00 65 1017.5
20260507064836 60 249 0.0 2.0 0.00 0.00 0.00 65 1017.4
20260507063837 59 324 0.0 1.0 0.00 0.00 0.00 65 1017.3
20260507062836 59 312 1.0 2.0 0.00 0.00 0.00 65 1017.4
20260507061835 59 259 1.0 6.0 0.00 0.00 0.00 66 1017.4
20260507061336 59 218 2.0 5.0 0.00 0.00 0.00 66 1017.5
20260507060836 58 243 2.0 5.0 0.00 0.00 0.00 67 1017.5
20260507055335 57 125 1.0 5.0 0.00 0.00 0.00 69 1017.1
20260507054836 56 157 1.0 3.0 0.00 0.00 0.00 70 1017.3
20260507054336 55 147 2.0 5.0 0.00 0.00 0.00 70 1017.1
20260507053835 54 158 2.0 5.0 0.00 0.00 0.00 70 1017.1
20260507053336 54 162 2.0 5.0 0.00 0.00 0.00 70 1017.2
20260507052336 53 176 2.0 3.0 0.00 0.00 0.00 70 1017.3
20260507051836 52 177 1.0 2.0 0.00 0.00 0.00 70 1017.4
20260507044836 50 206 1.0 2.0 0.00 0.00 0.00 70 1017.0
20260507044336 49 181 1.0 3.0 0.00 0.00 0.00 70 1016.9
20260507043836 49 193 1.0 2.0 0.00 0.00 0.00 69 1016.8
20260507042836 49 9 0.0 0.0 0.00 0.00 0.00 68 1016.7
20260507040835 48 1 0.0 1.0 0.00 0.00 0.00 68 1016.8
20260507033336 47 330 1.0 1.0 0.00 0.00 0.00 68 1016.3
20260507032336 47 197 0.0 1.0 0.00 0.00 0.00 67 1016.2
20260507031836 48 221 1.0 3.0 0.00 0.00 0.00 67 1016.4
20260507030835 48 39 1.0 2.0 0.00 0.00 0.00 66 1016.3
20260507030335 48 29 1.0 1.0 0.00 0.00 0.00 66 1016.1
20260507025836 48 24 0.0 0.0 0.00 0.00 0.00 66 1015.9
20260507025335 48 28 0.0 1.0 0.00 0.00 0.00 66 1015.5
20260507024335 49 24 1.0 2.0 0.00 0.00 0.00 65 1015.7
20260507020836 49 14 1.0 2.0 0.00 0.00 0.00 64 1015.8
20260507020336 49 267 0.0 1.0 0.00 0.00 0.00 64 1015.6
20260507015836 50 250 0.0 1.0 0.00 0.00 0.00 64 1015.4
20260507014835 50 279 0.0 1.0 0.00 0.00 0.00 64 1015.3
20260507014336 50 309 0.0 1.0 0.00 0.00 0.00 64 1015.2
20260507012835 51 303 1.0 2.0 0.00 0.00 0.00 63 1015.4
20260507011335 52 279 1.0 1.0 0.00 0.00 0.00 62 1015.3
20260507004335 53 324 1.0 2.0 0.00 0.00 0.00 62 1014.8
20260507003835 53 305 1.0 2.0 0.00 0.00 0.00 62 1014.7
20260507003336 53 327 1.0 5.0 0.00 0.00 0.00 62 1014.7
20260507001836 54 329 1.0 2.0 0.00 0.00 0.00 61 1014.8
20260507000835 54 22 0.0 1.0 0.00 0.00 0.00 61 1014.7
20260507000336 54 1 1.0 2.0 0.00 0.00 0.00 61 1014.5
20260506232836 55 24 1.0 2.0 0.00 0.00 0.00 59 1014.4
20260506231335 56 23 0.0 3.0 0.00 0.00 0.00 59 1014.3
20260506225335 57 11 1.0 5.0 0.00 0.00 0.00 58 1013.9
20260506224836 57 2 1.0 1.0 0.00 0.00 0.00 57 1014.0
20260506224336 57 42 0.0 1.0 0.00 0.00 0.00 56 1014.0
20260506223835 57 31 0.0 1.0 0.00 0.00 0.00 56 1014.0
20260506223335 58 33 1.0 1.0 0.00 0.00 0.00 56 1014.0
20260506221835 58 359 0.0 0.0 0.00 0.00 0.00 55 1014.0
20260506220835 59 67 0.0 1.0 0.00 0.00 0.00 55 1013.9
20260506215835 59 72 1.0 2.0 0.00 0.00 0.00 55 1013.8
20260506215335 59 72 2.0 2.0 0.00 0.00 0.00 54 1013.7
20260506214835 60 69 0.0 1.0 0.00 0.00 0.00 54 1013.6
20260506214335 60 69 0.0 2.0 0.00 0.00 0.00 54 1013.8
20260506213836 60 71 1.0 2.0 0.00 0.00 0.00 54 1013.6
20260506213335 60 69 2.0 2.0 0.00 0.00 0.00 54 1013.6
20260506212836 61 67 1.0 2.0 0.00 0.00 0.00 53 1013.7
20260506211836 61 97 2.0 5.0 0.00 0.00 0.00 53 1013.6
20260506211336 62 83 1.0 3.0 0.00 0.00 0.00 52 1013.6
20260506210335 62 91 1.0 2.0 0.00 0.00 0.00 52 1013.6
20260506205335 62 102 1.0 2.0 0.00 0.00 0.00 51 1013.5
20260506204336 63 104 1.0 3.0 0.00 0.00 0.00 51 1013.5
20260506202335 63 80 2.0 5.0 0.00 0.00 0.00 51 1013.4
20260506195835 64 154 2.0 8.0 0.00 0.00 0.00 49 1013.2
20260506195335 64 124 7.0 14.0 0.00 0.00 0.00 50 1013.1
20260506194335 64 100 3.0 5.0 0.00 0.00 0.00 47 1013.0
20260506193835 64 103 3.0 6.0 0.00 0.00 0.00 46 1012.9
20260506193336 64 91 2.0 6.0 0.00 0.00 0.00 46 1012.8
20260506192336 65 71 2.0 6.0 0.00 0.00 0.00 45 1012.6
20260506185836 65 76 1.0 5.0 0.00 0.00 0.00 44 1012.5
20260506184835 65 56 1.0 7.0 0.00 0.00 0.00 43 1012.5
20260506184336 65 76 1.0 7.0 0.00 0.00 0.00 42 1012.2
20260506183836 66 100 3.0 8.0 0.00 0.00 0.00 42 1012.2
20260506181336 67 30 1.0 2.0 0.00 0.00 0.00 42 1011.8
20260506180335 67 6 1.0 1.0 0.00 0.00 0.00 41 1011.6
20260506174335 68 8 0.0 1.0 0.00 0.00 0.00 41 1011.6
20260506173836 68 315 0.0 2.0 0.00 0.00 0.00 40 1011.6
20260506173335 68 16 1.0 2.0 0.00 0.00 0.00 40 1011.6
20260506172836 69 20 1.0 2.0 0.00 0.00 0.00 40 1011.3
20260506172335 69 18 1.0 2.0 0.00 0.00 0.00 41 1011.5
20260506170835 69 53 1.0 2.0 0.00 0.00 0.00 40 1011.4
20260506165835 69 71 1.0 2.0 0.00 0.00 0.00 41 1011.6
20260506164836 70 68 0.0 1.0 0.00 0.00 0.00 40 1011.6
20260506161836 71 95 1.0 5.0 0.00 0.00 0.00 39 1011.7
20260506161335 71 98 3.0 5.0 0.00 0.00 0.00 39 1011.6
20260506160836 71 101 3.0 6.0 0.00 0.00 0.00 38 1011.6
20260506155835 72 75 2.0 5.0 0.00 0.00 0.00 39 1012.0
20260506154836 72 86 2.0 5.0 0.00 0.00 0.00 38 1012.0
20260506153835 72 83 2.0 5.0 0.00 0.00 0.00 38 1012.0
20260506153335 73 77 2.0 5.0 0.00 0.00 0.00 38 1012.1
20260506150335 73 87 3.0 7.0 0.00 0.00 0.00 37 1012.2
20260506144835 74 92 3.0 6.0 0.00 0.00 0.00 37 1012.4
20260506144336 74 89 3.0 6.0 0.00 0.00 0.00 38 1012.6
20260506142835 74 120 3.0 6.0 0.00 0.00 0.00 38 1012.6
20260506142335 74 108 2.0 5.0 0.00 0.00 0.00 38 1012.5
20260506141335 74 113 3.0 6.0 0.00 0.00 0.00 36 1012.5
20260506140335 75 105 1.0 5.0 0.00 0.00 0.00 34 1012.6
20260506135835 75 88 3.0 8.0 0.00 0.00 0.00 34 1013.1
20260506134836 76 137 3.0 6.0 0.00 0.00 0.00 33 1013.1
20260506134335 77 145 3.0 7.0 0.00 0.00 0.00 32 1013.1
20260506133335 78 155 4.0 9.0 0.00 0.00 0.00 32 1013.1
20260506132335 78 175 4.0 8.0 0.00 0.00 0.00 32 1013.1
20260506130335 81 87 1.0 6.0 0.00 0.00 0.00 29 1013.3
20260506125335 82 71 4.0 7.0 0.00 0.00 0.00 30 1013.5
20260506124335 81 27 3.0 7.0 0.00 0.00 0.00 30 1013.6
20260506123335 81 54 3.0 7.0 0.00 0.00 0.00 29 1013.5
20260506122836 81 104 3.0 7.0 0.00 0.00 0.00 29 1013.6
20260506121835 81 137 5.0 9.0 0.00 0.00 0.00 30 1013.8
20260506120835 81 89 5.0 9.0 0.00 0.00 0.00 29 1014.1
20260506114836 81 231 2.0 7.0 0.00 0.00 0.00 30 1014.5
20260506113835 81 278 1.0 3.0 0.00 0.00 0.00 30 1014.7
20260506113336 81 329 2.0 5.0 0.00 0.00 0.00 30 1014.6
20260506112836 80 265 2.0 5.0 0.00 0.00 0.00 30 1014.8
20260506111835 80 293 2.0 7.0 0.00 0.00 0.00 30 1014.9
20260506105336 79 221 3.0 6.0 0.00 0.00 0.00 31 1015.5
20260506104335 79 283 2.0 6.0 0.00 0.00 0.00 31 1015.5
20260506103835 79 311 2.0 6.0 0.00 0.00 0.00 33 1015.5
20260506101336 77 293 5.0 8.0 0.00 0.00 0.00 33 1015.7
20260506100835 77 75 2.0 6.0 0.00 0.00 0.00 34 1015.9
20260506094835 76 286 3.0 7.0 0.00 0.00 0.00 36 1016.3
20260506093336 75 220 2.0 8.0 0.00 0.00 0.00 37 1016.5
20260506091335 74 253 1.0 5.0 0.00 0.00 0.00 41 1016.5
20260506085835 73 300 2.0 7.0 0.00 0.00 0.00 42 1016.6
20260506085335 73 291 3.0 8.0 0.00 0.00 0.00 43 1016.8
20260506084335 72 212 3.0 7.0 0.00 0.00 0.00 45 1016.8